Temperature
26 26 26 25 23 22 23 24 25 24 24 24 23 23 22 21 20 18 19 19 20 19 19 19 19 19 19 19 19 19 19 18 18 18 18 18 18 18 18 18 18 18 18 18 18 18 18 18 18
27 26 26 25 23 22 23 25 24 24 24 24 23 22 22 21 19 18 19 19 20 20 19 19 19 19 19 19 19 19 18 18 18 18 18 18 18 18 18 18 18 18 18 18 18 18 18 18 18
27 27 26 23 23 23 24 25 25 25 25 24 24 23 22 21 20 19 20 20 20 20 20 19 19 19 19 19 19 19 18 18 18 18 18 18 18 18 18 18 18 18 18 18 18 18 18 18 17
28 27 26 23 24 25 25 25 26 25 25 24 23 22 22 21 21 20 20 20 20 20 20 19 19 19 19 19 19 18 18 18 18 18 18 18 18 18 18 18 18 18 18 18 18 18 18 18 17
28 27 23 23 25 26 26 26 26 25 24 23 22 22 21 21 21 20 20 20 21 20 20 19 19 19 19 19 19 19 18 18 18 18 18 18 18 18 18 18 18 18 18 18 18 18 18 17 17
28 25 23 23 25 27 26 26 25 24 23 23 22 22 21 21 21 21 21 21 20 20 20 20 19 19 19 19 19 19 18 18 18 18 18 18 18 18 18 18 18 18 18 18 18 18 18 17 17
27 23 24 24 25 26 26 26 25 24 23 23 22 21 21 21 21 21 21 20 20 20 20 20 19 19 19 19 19 18 18 18 18 18 18 18 18 18 18 18 18 18 18 18 18 18 18 17 17
29 24 25 25 25 26 27 27 26 25 24 23 23 22 21 21 21 21 21 20 20 20 20 20 19 19 19 19 19 18 18 18 18 18 18 18 18 18 18 18 18 18 18 18 18 18 18 17 17
30 24 24 25 25 26 27 27 26 25 24 24 24 23 22 22 21 21 20 20 20 20 20 19 19 19 19 19 19 18 18 18 18 18 18 18 18 18 18 18 18 18 18 18 18 18 18 17 17
29 25 26 27 27 26 27 26 26 25 24 23 23 23 22 22 21 21 20 20 20 20 19 19 19 19 19 19 19 18 18 18 18 18 18 18 18 18 18 18 18 18 18 18 18 18 18 17 17
28 27 28 29 29 28 27 27 26 24 23 23 23 23 22 22 22 21 21 21 20 20 19 19 19 19 19 19 19 18 18 18 18 18 18 18 18 18 18 18 18 18 18 18 18 18 18 17 17
29 29 30 29 29 28 27 27 26 25 24 24 24 23 23 22 22 22 21 21 20 20 20 19 19 19 19 19 19 18 18 18 18 18 18 18 18 18 18 18 18 18 18 18 18 18 18 17 18
29 29 30 29 29 28 27 26 26 25 24 24 24 23 23 22 22 22 21 21 21 20 20 19 19 19 19 19 19 18 18 18 18 18 18 18 18 18 18 18 18 18 18 18 18 18 18 18 17
29 29 29 29 28 28 27 26 25 24 24 24 24 23 23 23 22 22 21 21 21 20 20 20 19 19 19 19 19 18 18 18 18 18 18 18 18 18 18 18 18 18 18 18 18 18 18 18 17
30 28 27 28 28 27 27 25 24 24 24 24 24 23 23 23 23 22 22 21 21 20 20 20 19 19 19 19 19 18 18 18 18 18 18 17 18 18 18 18 18 18 18 17 17 18 17 17 17
28 26 26 27 27 27 25 23 24 24 24 24 24 23 23 23 23 22 22 21 21 20 20 20 19 19 19 19 19 18 18 18 18 18 18 18 17 18 18 18 18 17 17 17 17 18 17 17 17
26 25 26 27 27 27 25 24 25 25 25 24 24 23 23 23 23 22 22 22 21 21 20 20 20 19 19 19 19 18 18 18 18 18 18 18 17 18 18 18 18 17 17 17 17 17 17 17 17
26 26 26 26 27 27 25 24 24 25 25 24 24 23 23 23 23 23 22 22 21 21 20 20 20 19 19 19 18 18 18 18 18 18 18 17 17 18 18 17 17 17 17 17 18 17 17 17 17
28 27 27 27 28 26 25 24 24 25 25 24 24 23 23 23 23 23 22 22 21 21 20 20 20 19 19 19 19 18 18 18 18 18 17 17 17 17 17 17 17 17 17 17 17 17 17 17 17
29 28 27 28 28 26 24 24 24 24 24 24 24 23 23 23 23 23 22 22 21 21 21 20 20 20 19 19 19 18 18 18 18 18 18 17 17 18 18 18 17 17 17 17 17 17 17 17 17
29 28 28 27 27 26 24 23 23 24 24 25 24 24 24 24 23 23 22 22 21 21 21 21 20 20 19 19 19 18 18 18 18 18 18 18 18 18 18 18 18 18 17 17 17 17 17 17 17
28 29 29 28 26 23 24 22 23 22 23 24 24 24 24 24 23 23 22 22 22 21 21 21 20 20 20 19 19 19 19 18 18 18 18 18 18 18 18 18 17 17 17 17 17 17 17 17 17
29 30 29 28 25 24 24 23 22 22 23 23 24 24 24 24 23 23 23 23 22 22 21 21 21 20 20 19 19 19 19 18 18 18 18 18 18 18 18 17 17 17 17 17 17 17 17 17 17
30 28 26 23 23 23 24 23 22 21 23 24 24 24 24 24 24 23 23 23 22 22 22 21 21 20 20 20 19 19 19 19 18 18 18 18 18 18 17 17 17 17 17 17 17 17 17 17 17
28 24 23 24 22 23 23 23 22 23 24 24 24 25 25 24 24 23 23 23 22 22 22 21 21 21 20 20 20 19 19 19 18 18 18 18 18 17 17 17 17 17 17 17 17 17 17 17 17
28 24 23 24 23 23 23 24 24 25 25 26 25 25 25 24 24 23 23 23 23 23 22 22 21 21 21 20 20 20 19 19 19 18 18 18 17 17 17 17 17 17 17 17 17 17 17 17 17
29 26 23 22 23 22 23 24 25 25 25 24 24 25 24 24 24 24 24 23 23 23 23 22 22 21 21 20 20 20 19 19 19 18 18 18 17 17 17 17 17 17 17 17 17 17 16 16 16
29 26 22 22 23 23 24 24 23 24 24 24 24 24 24 24 24 24 24 24 23 23 23 22 22 22 21 21 20 20 20 19 19 18 18 18 17 17 17 17 17 17 17 17 17 16 16 16 16
29 28 23 21 21 22 23 23 25 24 24 24 24 25 25 25 24 24 24 24 23 23 23 22 22 22 21 21 20 20 19 19 19 18 18 18 17 17 17 17 17 17 17 17 17 16 16 16 16
28 27 23 24 23 21 22 23 26 24 25 25 25 25 25 25 25 25 24 24 23 23 23 22 22 22 21 21 20 20 19 19 19 19 18 18 17 17 17 17 17 16 16 16 16 16 16 16 16
Wind_Speed
8 7 3 2 5 6 8 9 11 12 8 11 13 12 12 9 8 10 5 11 12 9 11 13 14 14 14 14 14 14 15 15 15 15 15 15 16 16 16 16 16 16 16 16 16 15 16 16 16
5 5 1 4 7 7 7 10 14 15 14 15 15 16 12 10 11 12 8 11 12 11 12 13 14 14 14 14 14 14 14 14 14 14 14 14 15 15 15 15 15 15 15 15 14 14 14 15 14
4 2 3 5 5 7 8 11 15 16 13 11 8 8 7 8 10 8 10 14 11 10 12 14 15 14 14 13 13 13 13 13 13 14 14 14 14 14 14 14 14 14 14 14 13 13 13 13 13
2 3 5 6 8 7 10 12 15 15 12 11 11 8 6 8 7 12 16 15 13 9 12 15 15 14 14 13 13 12 13 13 13 13 13 13 14 14 14 13 13 13 13 12 12 12 12 12 11
3 5 7 6 7 8 11 14 14 12 7 12 13 11 8 7 18 20 17 15 14 9 11 14 15 14 13 13 12 12 12 12 13 13 13 13 13 13 13 13 12 12 11 11 11 10 10 10 10
4 5 6 6 7 9 11 15 17 18 17 15 14 11 6 11 17 17 16 14 13 11 11 13 15 14 13 12 12 12 12 12 12 12 12 12 12 12 12 12 11 11 10 10 9 9 9 8 8
5 5 6 8 8 9 10 11 13 15 15 10 10 8 6 9 14 16 15 14 12 12 10 10 12 13 13 12 12 12 11 11 11 11 11 11 11 11 11 10 10 10 9 8 8 7 7 7 6
6 6 7 7 9 8 9 8 12 16 12 14 9 7 8 9 14 16 14 12 11 8 8 8 10 10 10 11 11 11 11 10 10 10 10 10 10 10 9 9 9 8 8 7 6 6 6 5 5
5 6 6 8 9 8 12 15 10 11 12 7 6 8 11 15 16 15 12 9 9 9 7 7 7 9 10 9 10 10 10 9 9 9 9 8 7 7 7 7 7 7 6 6 5 4 4 3 3
6 7 8 8 9 11 15 16 10 9 12 11 12 11 13 14 14 14 13 11 10 9 8 7 7 8 9 8 8 8 7 8 7 6 6 6 6 6 6 7 7 6 5 4 3 2 2 1 1
6 8 7 8 10 12 12 10 7 12 11 14 16 15 13 13 11 11 10 10 10 10 9 7 7 8 8 6 7 5 5 6 6 7 7 6 5 5 5 4 4 4 3 2 2 2 2 2 2
7 7 9 9 10 11 11 9 9 9 12 14 15 14 12 13 11 11 11 9 8 8 8 7 7 6 7 7 6 5 4 4 4 7 8 7 4 3 4 3 4 3 3 3 3 3 4 4 4
9 6 8 11 13 12 13 12 11 10 14 14 14 13 12 11 10 9 10 10 9 8 7 7 7 6 6 5 4 5 4 4 5 6 8 8 5 3 3 3 4 4 4 4 4 4 4 2 2
7 8 9 11 12 11 17 12 10 10 13 14 13 11 11 11 11 9 9 9 9 9 8 6 6 6 6 4 3 4 5 5 5 5 6 7 6 5 3 3 3 3 4 5 5 4 3 2 2
7 9 7 5 6 7 13 8 8 13 13 13 12 12 11 11 11 12 11 10 10 9 8 7 7 6 5 4 4 5 5 6 5 5 6 6 6 5 4 2 1 3 3 4 3 2 1 1 1
5 7 3 2 5 5 9 7 7 11 12 10 10 12 11 10 11 11 11 10 9 9 8 7 7 6 5 4 3 3 5 5 4 5 5 4 5 5 4 2 1 3 2 2 1 1 1 0 1
4 3 3 3 4 6 6 6 9 10 11 9 9 10 11 10 9 9 10 10 9 9 8 6 6 6 5 4 3 3 4 4 4 5 4 5 5 5 4 2 2 2 1 1 1 1 2 1 1
4 4 4 5 4 8 6 5 9 10 10 10 9 8 9 11 10 11 10 10 9 7 7 6 6 5 5 3 2 2 2 1 2 3 4 4 4 4 4 2 2 1 1 0 1 1 1 2 2
6 5 4 4 6 7 6 5 9 9 8 8 9 9 9 9 8 9 9 10 9 7 7 6 5 4 4 3 2 2 1 1 1 2 3 4 4 3 3 1 1 1 1 2 2 1 1 1 1
3 4 3 2 8 7 6 3 6 8 11 12 12 11 10 8 8 9 9 9 9 8 7 6 6 5 4 3 3 2 2 1 1 1 2 3 4 3 3 2 2 2 1 1 1 2 1 1 1
1 5 6 5 6 6 8 1 3 5 5 6 9 10 11 12 12 11 10 9 8 8 8 7 6 5 5 4 2 2 2 1 1 0 1 2 3 3 2 2 2 2 2 2 2 3 3 2 2
3 5 6 7 7 3 5 3 5 5 5 8 10 10 11 11 10 10 10 10 10 8 7 6 6 5 5 4 4 4 3 2 2 1 1 1 2 2 3 2 2 2 2 2 3 2 2 3 2
6 4 4 5 6 4 2 3 5 2 6 10 11 11 11 12 12 11 11 11 10 9 8 7 6 5 5 4 4 4 3 2 1 1 1 0 1 1 2 1 2 2 2 2 2 1 2 2 3
3 4 7 6 6 2 3 4 4 5 10 9 10 11 11 12 12 11 10 9 9 8 7 7 7 5 5 5 5 5 4 3 2 1 1 0 1 1 1 0 0 1 1 2 2 2 2 2 2
7 7 5 6 5 3 3 3 6 9 9 10 11 11 11 11 11 11 11 11 10 10 9 8 8 6 5 5 5 4 4 4 3 2 1 1 0 1 1 0 0 0 1 1 0 1 1 1 2
4 10 8 5 4 3 2 2 6 6 5 7 7 8 11 11 11 12 13 12 12 12 11 9 9 7 6 6 5 4 4 3 2 2 2 1 1 1 0 1 1 1 1 1 1 0 0 0 1
4 4 9 7 3 2 2 3 4 1 5 6 7 10 11 12 12 12 12 12 12 12 11 11 10 8 7 6 5 4 4 3 3 2 2 1 0 1 1 2 2 2 2 3 2 2 1 1 1
8 8 7 6 4 1 2 2 4 5 7 8 10 11 11 11 11 11 11 12 11 11 10 10 10 9 8 7 6 5 4 4 3 3 2 2 1 1 2 2 3 3 3 3 3 3 2 3 2
4 5 6 5 7 7 3 6 8 12 12 11 11 11 11 12 12 11 11 11 10 10 10 10 9 8 7 7 6 5 4 4 3 3 2 2 2 2 3 3 3 3 3 3 3 3 3 3 3
8 8 9 5 4 6 6 6 6 12 12 12 12 12 11 11 10 10 10 9 10 10 9 9 9 9 8 7 6 5 4 4 4 3 3 3 3 3 3 3 4 4 3 3 3 3 3 3 3
Wind_Direction
170 169 157 102 59 66 86 90 94 84 69 67 74 79 78 65 94 120 149 134 130 126 120 113 109 106 103 100 98 96 96 96 96 96 97 98 100 103 105 105 104 103 103 103 106 108 110 111 112
165 165 117 61 83 88 86 98 93 96 113 103 85 83 77 75 93 118 133 136 132 128 123 117 113 109 105 103 101 100 99 99 100 100 100 100 102 105 107 107 106 106 106 107 108 110 111 112 114
170 160 90 71 100 120 115 109 108 106 104 97 91 70 71 105 113 128 142 139 128 122 123 121 116 113 109 106 105 104 103 103 104 103 103 103 103 106 109 109 110 109 109 110 110 110 111 112 112
121 66 56 82 104 122 124 123 116 109 86 82 91 76 71 104 113 130 137 135 125 122 125 124 120 118 115 112 110 108 107 107 108 108 107 107 107 109 110 110 112 112 112 112 112 111 114 114 113
77 74 71 81 99 109 117 119 115 103 90 92 95 103 96 96 120 132 137 134 130 129 130 129 126 124 122 118 115 113 112 112 112 112 110 110 110 111 113 113 113 115 114 114 114 113 116 115 112
66 75 88 100 106 105 114 115 107 104 110 106 106 107 110 125 130 139 139 137 136 137 137 135 133 130 127 124 121 118 118 117 116 115 115 113 113 114 115 117 117 118 118 117 116 115 115 114 111
114 104 123 125 114 116 125 125 120 125 124 123 123 108 126 135 138 139 138 137 138 140 140 141 140 137 134 130 128 125 123 124 122 121 120 120 120 122 122 122 122 122 124 123 122 120 119 116 115
142 112 110 119 120 121 124 113 126 129 122 134 131 124 150 154 138 135 134 135 140 145 148 149 146 143 140 138 136 134 132 131 132 130 129 129 130 129 129 131 131 131 133 133 132 130 129 124 118
112 95 129 145 136 131 116 103 106 108 122 132 111 127 145 139 130 131 131 132 144 152 158 154 150 154 153 151 146 143 139 139 138 139 138 134 131 134 138 143 145 145 146 147 146 140 140 136 128
105 122 165 162 146 137 124 118 114 106 105 107 111 120 131 133 133 137 142 148 154 160 167 161 159 162 165 155 149 153 152 150 152 156 151 151 154 159 159 161 161 160 162 165 170 184 191 178 145
122 141 141 132 138 129 124 120 107 121 128 141 141 143 141 137 139 141 144 148 154 159 159 159 161 162 159 147 154 162 162 165 172 176 176 171 164 162 162 168 171 175 181 176 213 247 261 247 229
114 131 131 132 131 127 129 122 114 129 151 151 147 145 142 143 146 146 147 149 142 140 149 155 152 152 151 147 158 164 167 170 175 174 173 161 153 160 177 192 192 192 191 187 216 238 257 258 228
109 117 117 121 122 124 117 119 120 130 143 146 144 143 147 149 149 148 148 146 137 133 136 145 143 141 141 142 156 152 166 180 181 172 169 158 152 160 179 196 202 211 208 200 212 230 247 243 194
133 114 107 109 107 117 116 115 106 135 145 150 151 153 156 155 150 144 144 143 144 145 147 144 139 138 133 133 139 150 168 166 162 153 158 158 158 162 169 178 195 206 210 207 205 213 215 209 170
105 92 74 91 103 120 107 93 124 148 151 157 160 158 155 154 151 154 158 155 154 153 153 151 151 145 138 139 138 142 157 151 153 154 150 153 158 161 161 166 189 222 213 199 194 202 200 184 171
73 81 102 223 128 128 106 137 157 155 152 160 164 164 158 159 160 161 159 155 155 153 154 159 155 151 151 149 137 135 145 147 157 159 155 158 160 157 157 163 201 216 191 177 174 169 134 87 140
55 120 176 226 168 135 102 145 169 169 163 170 168 167 164 163 163 164 161 157 155 155 155 158 156 160 162 157 142 136 139 151 169 172 167 170 169 163 157 173 209 202 156 170 194 147 156 174 206
211 175 181 194 178 117 110 156 173 181 178 178 170 166 167 170 173 168 162 155 151 152 153 155 156 164 157 141 126 115 118 144 161 172 179 179 182 175 163 175 211 192 140 181 168 159 170 178 194
189 171 175 186 141 118 136 162 182 182 179 182 178 174 179 178 175 164 159 154 149 150 156 158 153 159 150 142 149 152 181 183 176 191 182 184 185 183 169 169 193 186 179 207 189 154 163 199 146
178 153 175 142 138 129 135 163 199 191 191 187 185 182 183 176 165 166 161 160 161 162 164 161 162 163 162 164 162 160 155 178 195 212 188 200 199 197 186 182 199 203 198 219 202 159 167 225 163
243 199 201 154 117 111 114 21 246 225 208 188 187 190 185 179 174 173 171 171 165 167 170 167 167 164 170 164 136 111 81 38 39 23 244 235 216 209 198 202 197 206 194 214 223 194 181 213 237
240 222 165 153 126 168 147 179 254 227 230 204 197 191 185 180 175 173 170 170 172 174 168 161 161 161 164 155 144 148 154 167 210 204 202 229 212 214 212 213 201 203 203 212 230 203 186 180 216
218 209 156 139 124 96 82 127 267 200 222 214 201 193 186 180 176 175 176 174 172 171 166 161 155 158 160 152 153 147 149 169 168 139 146 281 310 258 237 225 209 206 208 214 225 214 196 185 188
155 60 36 54 75 72 232 150 250 221 213 204 195 190 181 177 177 177 175 166 166 167 164 159 154 159 159 153 153 152 152 151 137 135 163 224 319 323 303 173 194 229 214 220 223 209 204 210 200
84 85 34 9 20 256 252 137 235 233 212 191 187 186 173 170 172 173 171 170 171 171 169 166 162 166 165 158 159 162 161 152 151 158 166 169 315 325 306 32 8 322 267 247 224 180 219 212 196
159 132 152 185 202 264 318 214 251 228 189 172 169 171 168 170 172 177 179 177 176 174 171 169 169 169 167 164 166 161 154 146 151 160 159 167 194 216 34 70 53 43 26 40 49 63 138 124 183
168 172 166 138 135 104 282 297 330 56 148 153 161 164 172 177 176 179 180 178 175 174 175 172 171 169 169 169 161 155 152 148 147 145 140 144 143 127 79 73 67 58 58 61 70 61 51 73 53
172 157 98 113 136 167 270 244 213 202 192 180 169 170 176 175 176 178 177 177 175 174 173 170 170 170 171 172 171 163 157 157 153 132 121 118 98 83 88 76 76 69 64 66 75 71 57 70 43
201 135 118 126 147 147 183 255 219 192 191 182 175 175 178 175 177 176 177 175 168 165 166 169 171 168 169 169 165 157 159 159 148 137 132 127 111 103 97 99 96 83 72 76 84 80 76 70 39
196 185 149 153 198 155 158 252 238 185 184 172 168 171 172 171 171 168 165 160 162 166 167 171 172 172 174 168 160 158 156 149 142 139 137 129 116 106 112 106 96 90 81 77 89 87 75 72 53
Height
1509 1509 1509 1511 1515 1526 1531 1526 1520 1520 1523 1524 1522 1524 1527 1532 1537 1548 1547 1547 1547 1547 1547 1547 1546 1546 1546 1545 1545 1545 1545 1545 1544 1544 1544 1544 1544 1544 1545 1545 1546 1546 1547 1547 1548 1549 1550 1550 1551
1509 1509 1511 1512 1525 1542 1538 1525 1523 1523 1525 1525 1527 1528 1530 1536 1539 1543 1545 1548 1548 1548 1548 1548 1547 1547 1547 1547 1547 1547 1547 1546 1546 1547 1547 1546 1546 1547 1547 1548 1548 1549 1549 1550 1550 1551 1552 1553 1554
1510 1510 1513 1517 1529 1538 1536 1525 1524 1526 1526 1525 1529 1531 1534 1539 1542 1544 1546 1548 1548 1549 1549 1549 1549 1549 1549 1549 1549 1549 1548 1548 1548 1548 1548 1548 1549 1549 1549 1550 1550 1551 1552 1552 1553 1553 1554 1555 1556
1511 1512 1515 1524 1531 1525 1523 1523 1523 1526 1528 1529 1530 1535 1539 1542 1543 1545 1547 1549 1549 1549 1550 1550 1550 1550 1550 1550 1550 1550 1550 1550 1550 1550 1550 1551 1551 1551 1552 1552 1553 1553 1554 1554 1555 1555 1556 1557 1558
1511 1514 1523 1533 1529 1523 1521 1522 1523 1525 1529 1533 1532 1538 1542 1545 1545 1547 1549 1550 1550 1550 1551 1551 1552 1552 1552 1552 1552 1552 1552 1552 1552 1552 1552 1553 1553 1553 1554 1554 1555 1555 1555 1556 1557 1557 1558 1559 1560
1513 1516 1534 1541 1531 1524 1523 1524 1525 1530 1534 1536 1537 1540 1545 1547 1547 1549 1550 1551 1552 1552 1552 1552 1553 1553 1553 1553 1554 1554 1554 1554 1554 1554 1554 1555 1555 1555 1556 1556 1557 1557 1557 1558 1559 1559 1560 1561 1562
1514 1521 1532 1533 1531 1528 1526 1525 1526 1531 1535 1537 1538 1541 1546 1548 1549 1550 1552 1552 1553 1553 1553 1554 1554 1554 1555 1555 1555 1555 1556 1556 1556 1556 1556 1556 1557 1557 1558 1558 1559 1559 1559 1560 1561 1561 1562 1563 1563
1511 1519 1529 1531 1531 1530 1525 1526 1528 1531 1535 1539 1540 1541 1546 1549 1550 1551 1553 1554 1554 1555 1555 1555 1556 1556 1556 1557 1557 1557 1557 1557 1558 1558 1558 1558 1559 1559 1559 1560 1560 1561 1561 1562 1562 1563 1564 1565 1565
1511 1523 1533 1530 1529 1528 1525 1527 1532 1533 1536 1539 1540 1542 1545 1549 1551 1552 1553 1555 1555 1556 1556 1557 1557 1557 1558 1558 1558 1559 1559 1559 1559 1559 1560 1560 1560 1560 1561 1561 1562 1563 1563 1564 1564 1565 1565 1566 1567
1509 1525 1525 1519 1519 1523 1526 1528 1532 1536 1538 1541 1543 1545 1548 1550 1551 1552 1554 1555 1555 1556 1557 1558 1558 1558 1559 1559 1559 1560 1560 1560 1561 1561 1561 1561 1562 1562 1562 1563 1564 1564 1564 1565 1565 1566 1567 1567 1568
1508 1516 1514 1516 1518 1521 1525 1529 1532 1536 1541 1541 1543 1546 1548 1550 1552 1553 1554 1555 1556 1557 1557 1558 1559 1559 1559 1560 1560 1560 1561 1561 1561 1561 1561 1562 1563 1563 1563 1564 1565 1565 1565 1566 1567 1567 1568 1568 1569
1508 1511 1512 1517 1519 1521 1525 1529 1534 1536 1540 1542 1544 1546 1549 1551 1552 1553 1554 1556 1557 1557 1558 1558 1559 1559 1560 1560 1561 1561 1561 1561 1562 1562 1562 1563 1563 1564 1564 1565 1565 1566 1566 1567 1567 1568 1569 1569 1569
1510 1512 1514 1516 1519 1522 1525 1530 1534 1538 1541 1544 1546 1548 1550 1551 1553 1554 1555 1556 1557 1558 1558 1559 1559 1560 1560 1561 1561 1561 1561 1562 1562 1562 1563 1563 1563 1564 1564 1565 1565 1566 1566 1567 1567 1568 1569 1569 1570
1512 1513 1516 1519 1522 1525 1528 1533 1536 1542 1542 1545 1547 1548 1550 1551 1553 1554 1555 1556 1557 1557 1558 1559 1559 1560 1560 1561 1561 1561 1561 1562 1562 1563 1563 1563 1564 1564 1565 1565 1566 1566 1567 1567 1568 1568 1569 1569 1569
1512 1517 1522 1524 1525 1529 1530 1539 1540 1541 1543 1545 1547 1548 1550 1551 1553 1554 1555 1556 1556 1557 1558 1558 1559 1559 1560 1560 1561 1561 1561 1562 1562 1563 1563 1563 1563 1564 1565 1565 1566 1566 1567 1567 1568 1568 1569 1569 1569
1516 1525 1534 1527 1526 1530 1535 1550 1543 1542 1544 1546 1547 1549 1549 1551 1552 1553 1555 1555 1556 1557 1558 1558 1558 1559 1559 1560 1560 1560 1561 1561 1562 1562 1563 1563 1563 1563 1564 1564 1565 1565 1566 1567 1567 1567 1568 1568 1568
1527 1538 1538 1531 1525 1528 1536 1546 1542 1543 1543 1545 1547 1548 1549 1550 1552 1553 1554 1555 1556 1556 1557 1557 1558 1558 1559 1559 1559 1560 1560 1560 1561 1562 1562 1562 1562 1563 1563 1564 1564 1565 1565 1566 1566 1566 1567 1567 1567
1537 1536 1535 1533 1527 1529 1537 1542 1540 1540 1542 1544 1546 1548 1549 1550 1551 1552 1553 1554 1555 1556 1556 1557 1557 1557 1558 1558 1559 1559 1559 1560 1560 1561 1561 1561 1561 1562 1562 1562 1563 1563 1564 1564 1565 1565 1565 1566 1566
1521 1527 1531 1528 1524 1530 1537 1540 1540 1539 1541 1543 1545 1546 1548 1549 1551 1552 1553 1554 1555 1556 1556 1556 1556 1556 1557 1557 1558 1558 1558 1559 1559 1559 1560 1560 1560 1560 1561 1561 1561 1562 1562 1563 1563 1564 1564 1564 1564
1518 1526 1529 1525 1523 1530 1538 1541 1538 1539 1539 1539 1541 1544 1545 1547 1549 1551 1552 1553 1554 1555 1555 1556 1556 1556 1556 1556 1557 1557 1558 1558 1558 1558 1558 1559 1559 1559 1559 1559 1560 1560 1560 1561 1562 1562 1562 1562 1563
1519 1525 1525 1527 1527 1530 1539 1549 1544 1540 1539 1540 1540 1541 1543 1545 1547 1549 1551 1552 1554 1554 1555 1555 1555 1555 1555 1556 1556 1556 1556 1556 1557 1557 1557 1557 1558 1558 1558 1558 1558 1558 1559 1559 1559 1560 1560 1560 1561
1524 1513 1514 1521 1535 1548 1544 1564 1548 1542 1540 1538 1538 1539 1540 1543 1545 1547 1549 1551 1552 1553 1554 1554 1555 1555 1555 1555 1555 1555 1555 1555 1556 1556 1556 1556 1557 1557 1557 1556 1556 1556 1557 1557 1557 1558 1558 1558 1558
1512 1506 1511 1518 1532 1546 1547 1558 1553 1542 1542 1536 1535 1536 1538 1541 1543 1545 1547 1549 1551 1553 1553 1554 1554 1554 1554 1555 1555 1555 1555 1555 1555 1555 1556 1556 1556 1556 1555 1555 1555 1555 1555 1555 1555 1555 1556 1556 1556
1503 1510 1518 1528 1540 1560 1549 1555 1556 1543 1535 1532 1532 1534 1536 1539 1541 1544 1547 1549 1550 1552 1553 1553 1553 1554 1554 1554 1554 1554 1554 1555 1555 1555 1555 1555 1554 1554 1554 1553 1553 1553 1553 1553 1553 1553 1553 1554 1554
1508 1531 1554 1558 1567 1564 1546 1550 1549 1529 1524 1525 1528 1531 1534 1537 1540 1542 1545 1547 1549 1550 1551 1552 1553 1553 1553 1553 1554 1554 1554 1554 1554 1554 1554 1554 1553 1553 1552 1552 1552 1552 1551 1552 1551 1551 1551 1551 1551
1511 1527 1555 1567 1570 1564 1548 1549 1536 1520 1520 1523 1526 1529 1533 1535 1537 1540 1543 1545 1547 1549 1550 1551 1551 1552 1552 1553 1553 1553 1554 1554 1554 1553 1553 1553 1552 1552 1552 1551 1551 1550 1550 1550 1550 1549 1549 1549 1550
1509 1520 1525 1547 1555 1564 1556 1542 1529 1520 1521 1523 1526 1528 1531 1533 1536 1538 1541 1543 1545 1547 1548 1549 1550 1551 1552 1552 1553 1553 1553 1553 1553 1553 1552 1552 1552 1552 1551 1550 1550 1549 1549 1548 1548 1547 1548 1548 1548
1499 1508 1530 1546 1563 1571 1558 1550 1544 1529 1525 1522 1524 1527 1529 1532 1534 1537 1539 1542 1544 1546 1548 1549 1550 1551 1551 1552 1552 1552 1552 1552 1552 1552 1552 1551 1551 1551 1550 1549 1549 1549 1548 1548 1547 1547 1547 1547 1547
1502 1509 1525 1541 1547 1564 1568 1556 1520 1519 1517 1519 1521 1524 1526 1529 1532 1534 1537 1540 1543 1545 1546 1548 1549 1550 1551 1551 1552 1552 1552 1552 1552 1552 1551 1551 1550 1550 1549 1549 1549 1548 1548 1547 1546 1546 1546 1545 1545
1495 1502 1518 1537 1543 1549 1556 1547 1508 1510 1511 1514 1518 1521 1524 1527 1530 1533 1536 1539 1541 1543 1545 1546 1548 1549 1549 1550 1551 1551 1552 1552 1551 1551 1550 1550 1549 1549 1549 1548 1548 1547 1547 1547 1546 1545 1545 1545 1544